Location: Chavannes
(47.1090°N, 0.2226°W)
Time: 14:24:04
(UTC+00:00)

Spot 2 - Pass Details

Date: 16 October 2021
Orbit: 570 x 773 km, 98.7° (Epoch: 07 December)

Event Time Altitude Azimuth Distance (km) Brightness Sun altitude
Rises 18:11:48 0° 154° (SSE) 2,765 7.2 -11.0°
Reaches altitude 10° 18:13:55 10° 151° (SSE) 1,879 6.3 -11.4°
Maximum altitude 18:17:54 60° 71° (ENE) 678 4.0 -12.1°
Drops below altitude 10° 18:22:03 10° 352° (N) 1,959 6.7 -12.8°
Sets 18:24:18 0° 349° (N) 2,895 7.7 -13.1°
